{"data":{"norad_id":38711,"intl_designator":"2012-039E","name":"MKA-PN 1","alt_names":[],"object_type":"PAYLOAD","status":"ACTIVE","operator":null,"country":"CIS","launch_date":"2012-07-22","launch_site_code":"TYMSC","launch_vehicle":null,"mission":null,"orbit_class":"UNKNOWN","rcs_meters":1.0842,"size_class":null,"mass_kg":null,"dimensions":null,"purposes":[],"wikipedia_slug":null,"has_3d_model":false,"image_url":null,"decayed_at":null,"tle_current":{"epoch":"2026-09-20T03:48:53.273088Z","epoch_age_seconds":58715,"freshness":"FRESH","line1":"1 38711U 12039E   26263.15894992  .00000080  00000+0  53575-4 0  9997","line2":"2 38711  98.9818  22.3953 0010477 252.8535 107.1497 14.25454080736376","mean_motion":14.2545408,"eccentricity":0.0010477,"inclination_deg":98.9818,"raan_deg":22.3953,"arg_perigee_deg":252.8535,"mean_anomaly_deg":107.1497,"bstar":5.3575e-5,"rev_number":73637,"period_min":101.02044114953,"perigee_km":799.43853420892,"apogee_km":814.49419980414,"semimajor_km":7185.1033670065,"source":"CELESTRAK","updated_at":"2026-09-20T09:00:13.861423Z"}}}